When you browse on this site, cookies collect data to enhance your experience and personalize the content and advertising you see.
Visit our Privacy Policy to learn more. By continuing to use the site, you agree to this use of cookies and data.
  • Em Portugal
  • Lista de países
  • Para 7 dias
  • Temperatura da água
  • Mapa do tempo
  • Widgets de tempo
  • user-avatar
    Iniciar Sessão

    Previsão horária em Quito

    Hoje, 24 Outubro, Quinta-feira

    Tempo Temperatura Precipitação Vento Pressão Humidade
    00:00 +19°C° 0 mm 3 m/s 621 mmHg 76%
    01:00 +19°C° 0 mm 3 m/s 621 mmHg 80%
    02:00 +18°C° 0 mm 3 m/s 621 mmHg 80%
    03:00 +18°C° 0 mm 3 m/s 621 mmHg 80%
    04:00 +18°C° 0 mm 2 m/s 621 mmHg 81%
    05:00 +19°C° 0 mm 2 m/s 622 mmHg 73%
    06:00 +22°C° 0 mm 1 m/s 623 mmHg 66%
    07:00 +23°C° 0 mm 1 m/s 624 mmHg 59%
    08:00 +26°C° 0 mm 1 m/s 624 mmHg 50%
    09:00 +28°C° 0 mm 2 m/s 625 mmHg 42%
    10:00 +31°C° 0 mm 2 m/s 626 mmHg 33%
    11:00 +31°C° 0 mm 3 m/s 625 mmHg 33%
    12:00 +31°C° 0 mm 3 m/s 624 mmHg 33%
    13:00 +32°C° 0 mm 4 m/s 623 mmHg 34%
    14:00 +30°C° 0 mm 3 m/s 623 mmHg 34%
    15:00 +30°C° 0 mm 2 m/s 623 mmHg 35%
    16:00 +30°C° 0 mm 1 m/s 623 mmHg 36%
    17:00 +26°C° 0.2 mm 2 m/s 622 mmHg 52%
    18:00 +22°C° 0.2 mm 3 m/s 622 mmHg 68%
    19:00 +19°C° 0.2 mm 3 m/s 621 mmHg 83%
    20:00 +18°C° 0.5 mm 3 m/s 622 mmHg 84%
    21:00 +18°C° 0.5 mm 3 m/s 622 mmHg 84%
    22:00 +18°C° 0.5 mm 2 m/s 622 mmHg 84%
    23:00 +18°C° 0.6 mm 2 m/s 622 mmHg 84%

    Amanhã, 25 Outubro, Sexta-feira

    Tempo Temperatura Precipitação Vento Pressão Humidade
    00:00 +18°C° 0.6 mm 2 m/s 622 mmHg 84%
    01:00 +18°C° 0.6 mm 3 m/s 622 mmHg 84%
    02:00 +18°C° 0 mm 2 m/s 622 mmHg 85%
    03:00 +18°C° 0 mm 2 m/s 622 mmHg 86%
    04:00 +19°C° 0 mm 1 m/s 622 mmHg 87%
    05:00 +19°C° 0.6 mm 1 m/s 622 mmHg 87%
    06:00 +18°C° 0.6 mm 2 m/s 623 mmHg 86%
    07:00 +18°C° 0.6 mm 2 m/s 624 mmHg 85%
    08:00 +20°C° 0.4 mm 2 m/s 624 mmHg 79%
    09:00 +21°C° 0.4 mm 2 m/s 624 mmHg 72%
    10:00 +22°C° 0.4 mm 3 m/s 624 mmHg 66%
    11:00 +24°C° 0.1 mm 2 m/s 624 mmHg 58%
    12:00 +26°C° 0.1 mm 2 m/s 624 mmHg 51%
    13:00 +28°C° 0.1 mm 2 m/s 623 mmHg 43%
    14:00 +28°C° 0 mm 2 m/s 623 mmHg 41%
    15:00 +28°C° 0 mm 1 m/s 623 mmHg 39%
    16:00 +28°C° 0 mm 1 m/s 623 mmHg 38%
    17:00 +26°C° 0 mm 1 m/s 622 mmHg 46%
    18:00 +24°C° 0 mm 1 m/s 622 mmHg 55%
    19:00 +22°C° 0 mm 1 m/s 622 mmHg 63%
    20:00 +21°C° 0 mm 1 m/s 622 mmHg 65%
    21:00 +21°C° 0 mm 1 m/s 622 mmHg 67%
    22:00 +20°C° 0 mm 1 m/s 622 mmHg 68%
    23:00 +20°C° 0 mm 1 m/s 622 mmHg 68%

    Depois de amanhã, 26 Outubro, Sábado

    Tempo Temperatura Precipitação Vento Pressão Humidade
    00:00 +18°C° 0 mm 0 m/s 621 mmHg 69%
    01:00 +17°C° 0 mm 0 m/s 621 mmHg 69%
    02:00 +17°C° 0.2 mm 0 m/s 621 mmHg 73%
    03:00 +18°C° 0.2 mm 1 m/s 621 mmHg 78%
    04:00 +18°C° 0.2 mm 1 m/s 621 mmHg 82%
    05:00 +19°C° 0.4 mm 1 m/s 622 mmHg 79%
    06:00 +20°C° 0.4 mm 1 m/s 622 mmHg 77%
    07:00 +21°C° 0.4 mm 1 m/s 623 mmHg 75%
    08:00 +23°C° 0 mm 1 m/s 624 mmHg 63%
    09:00 +26°C° 0 mm 2 m/s 625 mmHg 52%
    10:00 +29°C° 0 mm 3 m/s 625 mmHg 41%
    11:00 +30°C° 0 mm 2 m/s 625 mmHg 38%
    12:00 +31°C° 0 mm 2 m/s 624 mmHg 35%
    13:00 +32°C° 0 mm 2 m/s 624 mmHg 32%
    14:00 +31°C° 0 mm 2 m/s 623 mmHg 35%
    15:00 +30°C° 0 mm 2 m/s 622 mmHg 39%
    16:00 +29°C° 0 mm 2 m/s 621 mmHg 42%
    17:00 +25°C° 1.4 mm 3 m/s 621 mmHg 58%
    18:00 +21°C° 1.4 mm 4 m/s 621 mmHg 74%
    19:00 +17°C° 1.4 mm 5 m/s 620 mmHg 90%
    20:00 +18°C° 0.6 mm 4 m/s 621 mmHg 89%
    21:00 +18°C° 0.6 mm 3 m/s 621 mmHg 88%
    22:00 +19°C° 0.6 mm 2 m/s 622 mmHg 87%
    23:00 +19°C° 0.1 mm 2 m/s 621 mmHg 87%

    , 27 Outubro, Domingo

    Tempo Temperatura Precipitação Vento Pressão Humidade
    00:00 +18°C° 0.1 mm 2 m/s 621 mmHg 87%
    01:00 +19°C° 0.1 mm 1 m/s 621 mmHg 87%
    02:00 +18°C° 0.4 mm 2 m/s 621 mmHg 87%
    03:00 +18°C° 0.4 mm 2 m/s 621 mmHg 87%
    04:00 +18°C° 0.4 mm 2 m/s 621 mmHg 87%
    05:00 +18°C° 0.5 mm 2 m/s 621 mmHg 88%
    06:00 +18°C° 0.5 mm 2 m/s 622 mmHg 88%
    07:00 +20°C° 0.5 mm 1 m/s 622 mmHg 88%
    08:00 +19°C° 0.9 mm 2 m/s 622 mmHg 84%
    09:00 +19°C° 0.9 mm 3 m/s 622 mmHg 81%
    10:00 +19°C° 0.9 mm 4 m/s 622 mmHg 77%
    11:00 +22°C° 0 mm 4 m/s 622 mmHg 64%
    12:00 +26°C° 0 mm 3 m/s 623 mmHg 51%
    13:00 +29°C° 0 mm 3 m/s 623 mmHg 38%
    14:00 +29°C° 0 mm 2 m/s 623 mmHg 37%
    15:00 +29°C° 0 mm 2 m/s 622 mmHg 37%
    16:00 +29°C° 0 mm 2 m/s 622 mmHg 36%
    17:00 +27°C° 0 mm 2 m/s 621 mmHg 42%
    18:00 +26°C° 0 mm 1 m/s 621 mmHg 47%
    19:00 +24°C° 0 mm 1 m/s 621 mmHg 53%
    20:00 +23°C° 0 mm 2 m/s 621 mmHg 56%
    21:00 +23°C° 0 mm 2 m/s 621 mmHg 59%
    22:00 +23°C° 0 mm 2 m/s 622 mmHg 61%
    23:00 +21°C° 0 mm 2 m/s 621 mmHg 63%

    27 Outubro, Domingo

    Tempo Temperatura Precipitação Vento Pressão Humidade
    00:00 +18°C° 0.1 mm 2 m/s 621 mmHg 87%
    01:00 +19°C° 0.1 mm 1 m/s 621 mmHg 87%
    02:00 +18°C° 0.4 mm 2 m/s 621 mmHg 87%
    03:00 +18°C° 0.4 mm 2 m/s 621 mmHg 87%
    04:00 +18°C° 0.4 mm 2 m/s 621 mmHg 87%
    05:00 +18°C° 0.5 mm 2 m/s 621 mmHg 88%
    06:00 +18°C° 0.5 mm 2 m/s 622 mmHg 88%
    07:00 +20°C° 0.5 mm 1 m/s 622 mmHg 88%
    08:00 +19°C° 0.9 mm 2 m/s 622 mmHg 84%
    09:00 +19°C° 0.9 mm 3 m/s 622 mmHg 81%
    10:00 +19°C° 0.9 mm 4 m/s 622 mmHg 77%
    11:00 +22°C° 0 mm 4 m/s 622 mmHg 64%
    12:00 +26°C° 0 mm 3 m/s 623 mmHg 51%
    13:00 +29°C° 0 mm 3 m/s 623 mmHg 38%
    14:00 +29°C° 0 mm 2 m/s 623 mmHg 37%
    15:00 +29°C° 0 mm 2 m/s 622 mmHg 37%
    16:00 +29°C° 0 mm 2 m/s 622 mmHg 36%
    17:00 +27°C° 0 mm 2 m/s 621 mmHg 42%
    18:00 +26°C° 0 mm 1 m/s 621 mmHg 47%
    19:00 +24°C° 0 mm 1 m/s 621 mmHg 53%
    20:00 +23°C° 0 mm 2 m/s 621 mmHg 56%
    21:00 +23°C° 0 mm 2 m/s 621 mmHg 59%
    22:00 +23°C° 0 mm 2 m/s 622 mmHg 61%
    23:00 +21°C° 0 mm 2 m/s 621 mmHg 63%

    28 Outubro, Segunda-feira

    Tempo Temperatura Precipitação Vento Pressão Humidade
    00:00 +22°C° 0 mm 1 m/s 621 mmHg 64%
    01:00 +21°C° 0 mm 1 m/s 621 mmHg 66%
    02:00 +20°C° 0.3 mm 2 m/s 620 mmHg 69%
    03:00 +19°C° 0.3 mm 2 m/s 620 mmHg 73%
    04:00 +18°C° 0.3 mm 3 m/s 620 mmHg 76%
    05:00 +19°C° 0.2 mm 2 m/s 621 mmHg 74%
    06:00 +19°C° 0.2 mm 2 m/s 621 mmHg 71%
    07:00 +20°C° 0.2 mm 2 m/s 622 mmHg 69%
    08:00 +23°C° 0 mm 2 m/s 622 mmHg 58%
    09:00 +26°C° 0 mm 2 m/s 623 mmHg 47%
    10:00 +29°C° 0 mm 2 m/s 624 mmHg 35%
    11:00 +31°C° 0 mm 2 m/s 623 mmHg 32%
    12:00 +32°C° 0 mm 1 m/s 623 mmHg 29%
    13:00 +34°C° 0 mm 1 m/s 623 mmHg 26%
    14:00 +33°C° 0 mm 1 m/s 622 mmHg 29%
    15:00 +31°C° 0 mm 1 m/s 621 mmHg 32%
    16:00 +30°C° 0 mm 1 m/s 620 mmHg 35%
    17:00 +27°C° 0 mm 1 m/s 620 mmHg 43%
    18:00 +25°C° 0 mm 2 m/s 620 mmHg 51%
    19:00 +21°C° 0 mm 2 m/s 620 mmHg 58%
    20:00 +20°C° 0.3 mm 2 m/s 620 mmHg 66%
    21:00 +20°C° 0.3 mm 3 m/s 620 mmHg 74%
    22:00 +19°C° 0.3 mm 3 m/s 620 mmHg 82%
    23:00 +19°C° 0 mm 3 m/s 620 mmHg 82%

    29 Outubro, Terça-feira

    Tempo Temperatura Precipitação Vento Pressão Humidade
    00:00 +19°C° 0 mm 3 m/s 620 mmHg 81%
    01:00 +19°C° 0 mm 2 m/s 620 mmHg 81%
    02:00 +19°C° 0.4 mm 3 m/s 620 mmHg 83%
    03:00 +18°C° 0.4 mm 3 m/s 620 mmHg 85%
    04:00 +18°C° 0.4 mm 3 m/s 620 mmHg 86%
    05:00 +19°C° 0 mm 3 m/s 620 mmHg 84%
    06:00 +19°C° 0 mm 2 m/s 621 mmHg 82%
    07:00 +20°C° 0 mm 2 m/s 621 mmHg 79%
    08:00 +22°C° 0 mm 3 m/s 622 mmHg 66%
    09:00 +26°C° 0 mm 3 m/s 623 mmHg 52%
    10:00 +29°C° 0 mm 3 m/s 623 mmHg 39%
    11:00 +31°C° 0 mm 2 m/s 623 mmHg 34%
    12:00 +33°C° 0 mm 1 m/s 623 mmHg 29%
    13:00 +33°C° 0 mm 0 m/s 623 mmHg 25%
    14:00 +34°C° 0 mm 1 m/s 623 mmHg 27%
    15:00 +32°C° 0 mm 2 m/s 622 mmHg 30%
    16:00 +30°C° 0 mm 2 m/s 621 mmHg 32%
    17:00 +27°C° 0.6 mm 2 m/s 620 mmHg 46%
    18:00 +24°C° 0.6 mm 2 m/s 620 mmHg 59%
    19:00 +20°C° 0.6 mm 2 m/s 619 mmHg 72%
    20:00 +19°C° 2.5 mm 3 m/s 620 mmHg 75%
    21:00 +18°C° 2.5 mm 4 m/s 620 mmHg 77%
    22:00 +16°C° 2.5 mm 5 m/s 621 mmHg 80%
    23:00 +17°C° 0.2 mm 4 m/s 620 mmHg 81%
    Mostrar mais